User: anonymous
Location: Dover
(39.1580°N, 75.5250°W)
Time: 12:14:38
(UTC-04:00)
Language:

Cosmos 1437 Rocket - Orbit

View from above orbital plane
View from above orbital plane
View from above satellite
View from above satellite

Ground track
Ground track

The orbit data is extracted from the following two-line orbital elements,

1 13771U 83003B   14264.05862582  .00002238  00000-0  14795-3 0  1341
2 13771 081.1534 074.3699 0032107 075.4661 285.0121 15.06566980722986
Epoch (UTC): 21 September 2014 01:24:25
Eccentricity: 0.0032107
inclination: 81.1534°
perigee height: 524 km
apogee height: 569 km
right ascension of ascending node: 74.3699°
argument of perigee: 75.4661°
revolutions per day: 15.06566980
mean anomaly at epoch: 285.0121°
orbit number at epoch: 72298

The dashed part of the orbit path shows where the satellite is in the earth's shadow,  

DLR